EHI
8 6 3 1 0 0 0 0 0 0 0 0 0 0 0 0 0 0 0 0 0 0 0 0 0 0 0 0 0 0 0 0 0 0 0 0 0 1 1 1 2 1 1 1 1 1 0 0 0
10 6 2 1 0 0 0 0 0 0 0 0 0 0 0 0 0 0 0 0 0 0 0 0 0 0 0 0 0 0 0 0 0 0 0 0 1 1 2 3 4 3 2 2 1 0 0 0 0
9 5 1 0 0 0 0 0 0 0 0 0 0 0 0 0 0 0 0 0 0 0 0 0 0 0 0 0 0 0 0 0 0 0 0 0 1 2 3 4 5 3 2 1 1 0 0 0 0
4 2 0 0 0 0 0 0 0 0 0 0 0 0 0 0 0 0 0 0 0 0 0 0 0 0 0 0 0 0 0 0 0 0 0 0 0 2 3 4 3 1 0 0 0 0 0 0 0
1 0 0 0 0 0 0 0 0 0 0 0 0 0 0 0 0 0 0 0 0 0 0 0 0 0 0 0 0 0 0 0 0 0 0 0 1 2 3 3 1 0 0 0 0 0 0 1 1
0 0 0 0 0 0 0 0 0 0 0 0 0 0 0 0 0 0 0 0 0 0 0 0 0 0 0 0 0 0 0 0 0 0 0 0 1 3 3 2 1 0 0 0 0 0 1 2 2
0 0 0 0 0 0 0 0 0 0 0 0 0 0 0 0 0 0 0 0 0 0 0 0 0 0 0 0 0 0 0 0 0 0 0 0 2 3 2 1 0 0 0 0 0 0 1 2 1
0 0 0 0 0 0 0 0 0 0 0 0 0 0 0 0 0 0 0 0 0 0 0 0 0 0 0 0 0 0 0 0 0 0 0 0 1 2 1 0 0 0 0 0 0 0 1 1 0
0 0 0 0 0 0 0 0 0 0 0 0 0 0 0 0 0 0 0 0 0 0 0 0 0 0 0 0 0 0 0 1 0 0 1 0 0 0 0 0 0 0 0 0 0 0 0 0 0
0 0 0 0 0 0 0 0 0 0 0 0 0 0 0 0 0 0 0 0 0 0 0 0 0 0 0 0 0 0 0 0 0 0 0 0 0 0 0 0 0 0 0 0 0 0 0 0 0
0 0 0 0 0 0 0 0 0 0 0 0 0 0 0 0 0 0 0 0 0 0 0 0 0 0 0 0 0 0 0 0 0 0 0 0 0 0 0 0 0 0 0 0 0 0 0 0 0
0 0 0 0 0 0 0 0 0 0 0 0 0 0 0 0 0 0 0 0 0 0 0 0 0 0 0 0 0 0 0 0 0 0 0 0 0 0 0 0 0 0 0 0 0 0 0 0 0
0 0 0 0 0 0 0 0 0 0 0 0 0 0 0 0 0 0 0 0 0 0 0 0 0 0 0 0 0 0 0 0 0 0 0 0 0 0 0 0 0 0 0 0 0 0 0 0 0
0 0 0 0 0 0 0 0 0 0 0 0 0 0 0 0 0 0 0 0 0 0 0 0 0 0 0 0 0 0 0 0 0 0 0 0 0 0 0 0 0 0 0 0 0 0 0 0 0
0 0 0 0 0 0 0 0 0 0 0 0 0 0 0 0 0 0 0 0 0 1 1 1 2 1 0 0 0 0 0 0 0 0 0 0 0 0 0 0 0 0 0 0 0 0 0 0 0
0 0 0 0 0 0 0 0 0 0 0 0 0 0 0 0 0 0 0 0 1 2 4 7 10 10 7 3 1 1 0 0 0 0 0 0 0 0 0 0 0 0 0 0 0 0 0 0 0
0 0 0 0 0 0 0 0 0 0 0 0 0 0 0 0 0 0 0 0 1 2 5 13 26 36 35 22 10 3 1 0 0 0 0 0 0 0 0 0 0 0 0 0 0 0 0 0 0
0 0 0 0 0 0 0 0 0 0 0 0 0 0 0 0 0 0 0 0 0 1 6 18 42 66 73 58 32 14 5 2 1 1 1 0 0 0 0 0 0 0 0 0 0 0 0 0 0
0 0 0 0 0 0 0 0 0 0 0 0 0 0 0 0 0 0 0 0 0 1 7 21 43 64 74 68 48 26 12 5 3 2 2 1 0 0 0 0 0 0 0 0 0 0 0 0 0
0 0 0 0 0 0 0 0 0 0 0 0 0 0 0 0 0 0 0 0 0 2 6 16 26 32 38 41 36 24 14 7 4 5 6 4 1 0 0 0 0 0 0 0 0 0 0 0 0
0 0 0 0 0 0 0 0 0 0 0 0 0 0 0 0 0 0 0 0 0 1 2 6 9 9 10 13 15 12 9 6 3 6 10 6 1 0 0 0 0 0 0 0 0 0 0 0 0
0 0 0 0 0 0 0 0 0 0 0 0 0 0 0 0 0 0 0 0 0 0 0 2 3 2 2 4 5 5 4 3 1 3 6 3 0 0 0 0 0 0 0 0 0 0 0 0 0
0 0 0 0 0 0 0 0 0 0 0 0 0 0 0 0 0 0 0 0 0 0 0 1 1 1 1 2 3 3 2 1 0 0 1 0 0 0 0 0 0 0 0 0 0 0 0 0 0
0 0 0 0 0 0 0 0 0 0 0 0 0 0 0 0 0 0 0 0 0 0 0 0 0 1 2 2 2 2 2 1 0 0 0 0 0 0 0 0 0 0 0 0 0 0 0 0 0
0 0 0 0 0 0 0 0 0 0 0 0 0 0 0 0 0 0 0 0 0 0 0 0 0 1 2 2 1 1 1 1 0 0 0 0 0 0 0 0 0 0 0 0 0 0 1 0 0
0 0 0 0 0 0 0 0 0 0 0 0 0 0 0 0 0 0 0 0 0 0 0 0 1 3 4 2 0 0 0 0 0 0 0 0 0 0 0 0 0 0 0 0 0 0 0 0 0
0 0 0 0 0 0 0 0 0 0 0 0 0 0 0 0 0 0 0 0 0 1 1 3 6 9 8 3 0 0 0 0 0 0 0 0 0 0 0 0 0 0 0 0 0 0 0 0 0
0 0 0 0 0 0 0 0 0 0 0 0 0 0 0 0 0 0 0 0 1 3 7 14 21 22 15 6 1 0 0 0 0 0 0 0 0 0 0 0 0 0 0 0 0 0 0 0 0
0 0 0 0 0 0 0 0 0 0 0 0 0 0 0 0 0 0 0 1 4 10 20 34 41 36 25 12 2 0 0 0 0 0 0 0 0 0 0 0 0 0 0 0 0 0 0 0 0
0 0 0 0 0 0 0 0 0 0 0 0 0 0 0 0 0 0 0 1 7 19 33 46 50 44 33 18 4 0 0 0 0 0 0 0 0 0 0 0 0 0 0 0 0 0 0 0 0
Wind_Speed
5 3 3 3 4 5 9 5 3 3 5 5 5 4 5 7 6 6 6 7 7 11 12 13 11 11 10 11 12 12 12 12 11 10 10 9 10 11 11 10 9 8 8 8 9 9 7 7 6
6 3 4 4 2 6 8 4 3 4 5 4 3 2 3 6 6 7 8 6 9 11 11 11 11 10 10 10 11 12 12 12 11 10 9 9 9 9 10 10 10 10 9 9 9 7 6 8 8
4 4 4 2 3 7 7 4 3 4 3 1 2 3 4 5 5 6 7 10 10 10 9 10 11 10 9 9 10 11 11 11 11 11 9 9 9 9 10 10 10 11 9 8 8 7 7 7 8
3 4 3 2 7 7 5 4 2 6 3 0 0 3 5 5 3 7 11 10 11 10 9 11 10 10 9 9 10 11 12 12 12 11 10 9 9 9 9 10 10 11 9 8 7 6 5 5 7
3 4 3 5 6 5 3 3 2 4 1 2 0 3 7 6 7 9 11 9 10 10 9 10 10 10 10 9 10 12 12 12 13 11 10 9 9 10 10 10 10 10 9 8 6 5 4 6 7
2 3 3 5 5 4 3 2 2 2 2 3 2 3 6 7 7 9 10 8 8 9 8 10 10 9 9 9 11 12 12 12 12 11 11 10 10 11 11 11 11 9 8 9 7 8 9 9 7
3 2 3 6 6 5 3 0 0 0 2 2 1 2 7 8 8 10 9 8 7 8 8 7 10 10 10 9 11 12 12 12 12 11 11 10 11 11 11 12 10 9 9 9 9 10 10 9 8
2 2 5 6 7 5 3 1 2 3 2 2 3 0 5 10 11 10 9 8 8 8 8 8 8 8 10 11 12 12 13 13 12 12 12 11 12 12 12 12 11 10 9 9 10 10 10 10 9
4 5 4 5 6 5 4 3 2 1 1 4 4 2 6 14 14 11 10 9 9 8 7 8 9 9 9 10 12 12 13 12 13 12 13 12 10 11 10 12 12 11 11 10 11 10 9 7 8
4 5 1 2 4 4 3 1 1 2 2 4 6 6 9 14 14 14 12 12 11 11 9 8 8 9 9 8 10 9 9 11 9 9 10 8 7 6 9 12 11 12 11 10 10 8 6 3 5
4 5 1 3 3 2 1 0 1 3 2 2 4 9 12 14 14 13 12 11 10 10 9 8 8 8 8 7 6 6 6 7 8 9 9 6 7 7 8 8 9 9 9 8 9 7 3 5 5
5 4 3 1 3 4 3 3 4 6 3 0 2 7 13 15 14 13 11 9 9 10 10 9 8 9 8 7 5 5 6 6 6 8 9 7 5 6 7 6 7 6 4 4 4 3 6 6 6
7 4 3 4 5 6 6 8 7 9 7 5 5 9 12 13 13 12 10 10 10 10 10 10 9 9 8 7 5 6 6 6 6 6 7 7 6 7 7 6 5 5 4 5 4 5 6 6 7
3 5 6 6 8 7 9 10 9 10 6 7 9 11 12 12 12 10 11 11 11 11 11 10 11 10 9 8 7 6 6 6 6 6 8 8 6 6 7 8 7 6 5 4 5 7 6 5 5
5 7 9 9 10 7 8 12 14 13 7 10 12 12 11 11 10 10 9 10 9 9 10 11 11 11 11 10 9 6 6 7 7 7 8 9 8 8 8 8 8 7 6 6 5 7 5 5 5
6 8 8 3 6 6 9 12 4 2 8 11 12 11 11 11 11 9 9 9 9 9 10 10 9 11 12 10 9 7 7 7 6 7 7 9 9 9 7 7 7 7 6 6 6 6 6 5 4
8 8 7 3 1 2 7 10 3 1 5 9 11 12 12 12 11 8 8 8 8 9 10 11 11 10 10 10 8 7 6 6 6 6 6 8 10 11 9 7 8 9 6 6 7 6 6 5 4
5 8 8 6 1 5 8 10 10 6 7 9 10 12 12 12 9 6 6 6 7 9 9 8 8 8 8 7 7 6 4 5 6 7 8 10 9 11 9 7 10 10 7 6 7 7 6 5 5
7 9 10 8 6 8 11 12 12 10 8 10 11 12 12 9 6 6 5 4 5 6 7 7 8 8 7 6 6 6 6 6 7 7 10 11 11 11 8 7 10 9 9 10 10 8 8 7 6
8 11 12 9 5 8 12 14 13 13 12 11 11 11 12 9 9 9 7 6 5 5 6 7 9 9 8 6 6 5 5 5 6 6 8 11 12 11 9 8 7 9 8 11 11 9 7 6 7
10 10 9 9 11 10 11 15 13 12 11 10 10 9 10 11 12 11 8 6 6 5 6 6 8 9 9 9 6 5 4 4 5 7 7 9 11 11 8 8 7 9 11 10 12 13 13 9 10
9 4 7 10 11 9 7 11 10 10 12 12 10 9 9 10 11 10 8 7 7 7 7 7 8 9 9 9 8 9 6 6 7 6 7 9 12 12 10 8 8 10 11 11 12 14 12 11 10
6 1 4 8 10 13 12 12 10 7 10 10 7 6 8 10 12 11 8 7 7 7 7 7 8 8 9 9 8 8 7 5 4 5 6 7 9 11 12 12 11 12 12 13 12 12 13 11 10
5 4 1 4 8 12 11 10 8 5 4 6 5 3 7 10 12 10 8 7 7 7 6 6 7 8 8 8 8 8 7 6 6 6 6 5 5 7 12 13 13 12 10 11 10 10 13 11 12
7 4 3 5 7 7 2 6 6 4 6 8 9 4 5 10 11 10 9 8 8 7 6 7 7 7 8 8 8 8 7 7 7 6 6 6 5 5 8 10 11 11 10 8 6 6 9 11 12
10 11 8 5 5 3 5 7 2 3 4 5 4 1 6 9 10 9 8 8 8 8 8 8 7 7 7 7 7 7 7 4 4 5 5 5 5 5 6 7 8 9 9 9 8 6 7 9 11
7 9 7 10 9 8 7 6 5 1 1 2 4 3 4 7 8 8 7 7 8 9 9 9 9 8 7 7 6 6 5 5 5 5 5 5 5 4 6 6 6 7 8 9 9 7 7 8 10
6 5 6 8 8 11 9 9 7 4 2 2 3 3 1 2 5 6 7 7 8 9 10 10 9 9 8 7 6 4 5 5 4 4 6 5 5 5 6 7 6 7 7 8 8 8 7 6 7
5 8 9 8 7 8 6 2 1 2 4 4 5 5 5 5 4 4 5 8 9 9 10 11 11 10 9 8 7 6 5 5 5 5 5 6 6 6 7 7 8 8 8 8 7 7 9 7 5
5 7 9 9 10 6 5 5 2 1 0 2 4 6 7 7 7 6 6 7 9 11 12 12 12 12 10 9 8 7 5 5 5 5 6 7 7 7 8 8 8 7 8 8 8 8 7 5 2
Wind_Direction
267 291 256 242 204 94 76 72 43 54 58 63 63 62 50 35 10 45 106 139 148 150 154 157 163 158 153 155 158 157 154 147 144 140 132 132 133 136 135 128 116 107 96 78 72 73 81 90 94
309 289 249 244 148 93 78 64 53 52 85 99 88 66 68 70 54 93 132 136 150 149 157 156 158 162 158 158 160 159 158 155 151 143 137 136 131 129 127 123 114 102 94 84 73 73 88 92 89
270 259 258 203 88 72 78 65 57 105 112 8 79 61 37 57 84 117 124 138 145 145 153 141 158 162 161 161 160 157 156 155 147 140 142 142 137 132 125 122 114 104 98 94 87 85 97 89 86
252 231 225 177 107 83 75 66 91 144 163 76 61 93 83 65 78 113 132 141 138 143 150 140 165 163 164 163 159 154 153 152 145 143 146 141 138 132 128 123 112 106 103 100 98 95 97 94 88
256 251 180 142 119 106 87 52 110 167 145 127 14 83 100 90 97 121 139 144 143 144 147 145 163 165 165 161 157 154 154 151 144 142 138 134 135 129 125 120 113 109 111 114 113 105 107 107 86
264 253 189 151 130 124 119 125 166 199 157 154 176 116 99 112 130 135 139 148 140 138 148 145 151 160 163 157 153 152 151 147 140 137 129 129 130 127 124 119 113 114 118 119 107 94 100 99 84
292 254 164 141 147 145 105 81 104 232 189 172 192 117 123 135 139 145 143 139 133 139 149 149 151 157 159 152 151 151 147 142 137 132 130 127 127 125 122 117 119 123 125 117 107 103 100 92 81
312 242 167 170 172 140 109 124 49 349 40 118 206 346 117 142 148 151 147 146 146 154 160 154 152 153 152 150 152 152 147 144 138 133 132 127 127 128 128 129 126 128 121 111 112 106 96 84 74
263 249 218 194 192 144 122 128 105 358 129 181 200 42 74 135 152 160 160 164 163 167 170 163 157 152 149 149 149 154 149 144 144 140 139 150 153 143 148 117 129 124 112 109 112 101 96 101 98
259 266 280 190 190 149 128 76 118 204 196 194 184 146 133 154 169 177 179 178 175 175 174 172 164 158 159 154 153 160 155 156 163 151 154 163 142 142 121 125 133 120 112 115 112 114 148 213 113
258 274 294 191 204 235 239 285 234 241 180 172 177 169 164 177 186 193 192 185 176 171 169 174 171 168 162 161 162 164 155 161 163 162 160 161 145 145 140 145 144 138 150 131 140 170 95 74 69
256 264 273 239 187 216 234 255 255 241 246 154 202 165 174 191 198 201 199 187 179 176 174 170 176 171 175 169 167 173 164 168 167 171 168 167 161 161 149 156 155 155 144 135 137 106 91 79 82
245 268 248 239 219 232 243 248 262 255 245 235 208 181 187 198 205 202 199 191 189 183 182 176 182 180 174 173 173 189 181 171 170 174 178 175 172 178 159 161 154 154 151 155 145 135 95 83 71
296 279 262 250 235 238 247 254 245 252 233 213 203 193 193 201 211 201 197 199 199 192 190 180 185 183 179 177 187 192 183 172 181 186 188 182 180 185 174 163 159 165 174 165 157 131 118 103 88
258 266 254 234 232 237 251 255 242 252 229 219 210 202 201 208 214 217 208 207 209 202 199 189 190 187 187 187 185 189 193 184 186 194 194 188 183 187 186 171 174 172 170 167 161 135 124 114 117
242 247 251 218 229 219 236 261 267 301 217 224 221 211 209 217 225 221 220 217 212 210 211 198 194 196 191 188 184 185 196 193 191 191 199 196 191 190 186 178 182 181 172 165 162 162 150 143 146
228 248 262 256 183 223 243 266 261 357 238 233 229 227 219 219 224 224 226 228 223 216 214 207 203 200 194 189 187 182 197 197 201 196 197 203 203 192 183 189 183 185 186 175 176 182 167 157 153
261 267 270 271 298 295 268 268 275 266 250 252 242 235 223 224 215 210 217 229 228 224 220 209 201 188 183 184 188 177 196 217 214 201 199 207 210 204 191 194 195 192 188 187 191 187 183 166 174
297 285 277 278 294 290 278 276 271 264 247 251 248 238 225 219 189 180 177 185 200 205 204 190 186 172 167 174 186 184 196 209 219 214 205 203 207 202 200 213 209 198 195 197 197 187 190 182 179
264 267 268 273 276 289 284 279 272 262 260 260 264 252 222 202 189 176 168 157 168 173 179 181 182 176 176 182 191 198 194 207 215 219 210 205 203 197 194 207 228 210 208 210 209 192 190 189 194
259 267 283 297 307 278 284 274 258 253 250 250 252 253 223 198 196 179 172 159 154 162 170 179 183 179 181 180 183 184 183 194 197 212 209 205 198 189 180 191 223 236 220 216 219 206 194 193 201
263 308 324 317 306 286 282 287 276 275 269 256 249 237 220 197 195 179 173 163 157 156 165 174 179 182 183 183 191 197 206 211 211 205 202 204 200 193 183 191 213 238 237 225 220 214 202 196 196
240 75 352 319 300 284 267 269 274 269 268 269 272 250 222 197 190 178 168 152 141 142 154 165 169 175 179 194 206 222 231 230 221 213 209 206 201 200 198 203 209 227 234 232 223 213 206 199 199
166 143 197 250 260 260 258 264 279 273 294 313 321 283 206 187 181 170 154 152 148 146 152 162 169 168 177 193 207 219 221 215 210 209 205 204 207 214 213 211 213 217 221 222 220 213 209 211 207
195 203 243 225 221 243 216 253 270 329 334 322 320 317 180 174 173 170 169 172 167 167 169 170 169 166 175 189 201 211 213 218 220 217 211 205 205 214 218 214 214 211 207 197 185 192 211 217 216
216 223 231 251 248 219 192 238 249 18 322 334 353 77 163 172 180 182 186 186 181 183 184 182 176 168 172 195 200 203 200 216 229 222 213 204 206 207 204 207 207 205 196 183 170 164 202 218 217
235 226 247 264 268 270 249 243 267 223 355 27 48 96 168 190 197 203 204 203 196 194 192 190 184 177 181 196 196 203 206 211 215 217 207 201 204 203 199 195 193 190 185 179 168 165 187 214 216
284 277 227 242 259 257 250 243 245 225 50 43 52 51 48 239 236 227 217 217 212 205 197 192 189 184 185 191 192 199 210 200 209 207 195 195 193 185 175 183 188 189 185 178 169 159 164 190 210
278 244 251 258 274 276 280 246 28 54 59 58 54 37 16 4 343 294 239 220 214 208 200 194 188 187 185 187 187 195 198 200 202 203 192 190 185 177 183 189 196 194 187 178 165 157 154 164 186
291 306 285 265 257 252 271 272 54 264 313 47 22 11 356 347 336 316 283 241 216 208 204 200 194 185 184 183 183 197 194 197 211 201 192 188 187 190 193 191 202 194 178 173 167 161 154 154 183